{"data":{"norad_id":58282,"epoch":"2026-08-27T16:38:23.902080Z","epoch_age_seconds":2071266,"freshness":"OLD","line1":"1 58282U 23174AC  26239.69333220  .00028979  00000+0  35301-3 0  9991","line2":"2 58282  97.3763 332.8368 0004702 238.7449 121.3348 15.60463663156885","mean_motion":15.60463663,"eccentricity":0.0004702,"inclination_deg":97.3763,"raan_deg":332.8368,"arg_perigee_deg":238.7449,"mean_anomaly_deg":121.3348,"bstar":0.00035301,"rev_number":15688,"period_min":92.280264779225,"perigee_km":383.13614758414,"apogee_km":389.49743993179,"semimajor_km":6764.453793758,"source":"CELESTRAK","updated_at":"2026-08-29T09:01:25.961824Z"}}